Tracking 19795 objects as of 20-Jul-2019
HD Live streaming from Space Station
objects crossing your sky now

COSMOS 1275 DEB

Track COSMOS 1275 DEB now!
10-day predictions


NORAD ID: 13020
Int'l Code: 1981-053ES
Perigee: 897.2 km
Apogee: 1,068.9 km
Inclination: 82.7 °
Period: 104.6 minutes
Semi major axis: 7354 km
RCS: 0.0175 m2 (small)
Launch date: June 4, 1981
Source: Commonwealth of Independent States (former USSR) (CIS)
Launch site: PLESETSK MISSILE AND SPACE COMPLEX (PKMTR)

Note: This is SATELLITE DEBRIS
aabbcc
Your satellite tracking list
Your tracking list is empty




NASA's NSSDC Master Catalog

Two Line Element Set (TLE):
1 13020U 81053ES  19200.89879117 +.00000123 +00000-0 +10529-3 0  9991
2 13020 082.6926 007.2588 0116724 352.4372 174.0999 13.76607593882833
Source of the keplerian elements: AFSPC